Hourly Weather Roundup
Issued by NWS Central Illinois

Home | Current Version | Previous Version | Text Only | Print | Product List | Glossary On
Versions: 1 2 3 4 5 6 7 8 9 10 11 12 13 14 15 16 17 18 19 20 21 22 23 24 25 26 27 28 29 30 31 32 33 34 35 36 37 38 39 40 41 42 43 44 45 46 47 48 49 50
000
NZUS43 KILX 011210
HWRILX

AREA WEATHER ROUNDUP
NATIONAL WEATHER SERVICE, LINCOLN IL
700 AM CDT SAT AUG 01 2015


CITY           SKY/WX    TMP DP  RH WIND       PRES   REMARKS
BLOOMINGTON    SUNNY     66  60  81 NW5       30.06R
6HR MIN TEMP:  64; 6HR MAX TEMP:  72;

CHAMPAIGN      SUNNY     61  58  90 CALM      30.05R
6HR MIN TEMP:  58; 6HR MAX TEMP:  66;

DANVILLE       SUNNY     63  58  84 NW6       30.01R
6HR MIN TEMP:  60; 6HR MAX TEMP:  64;

DECATUR        SUNNY     69  58  67 N8        30.05R
6HR MIN TEMP:  64; 6HR MAX TEMP:  76;

EFFINGHAM      SUNNY     67  63  86 CALM      30.06R
FLORA          SUNNY     69  65  88 N5        30.04R
6HR MIN TEMP:  67; 6HR MAX TEMP:  74;

GALESBURG      SUNNY     59  58  96 CALM      30.04S
JACKSONVILLE   MOSUNNY   68  65  90 CALM      30.05S
6HR MIN TEMP:  64; 6HR MAX TEMP:  72;

LACON          SUNNY     62  59  90 CALM      30.03R
6HR MIN TEMP:  59; 6HR MAX TEMP:  67;

LAWRENCEVILLE  SUNNY     71  61  70 N3        30.03R
6HR MIN TEMP:  67; 6HR MAX TEMP:  73;

LITCHFIELD     PTSUNNY   67  64  89 NW5       30.06R
$$


CITY           SKY/WX    TMP DP  RH WIND       PRES   REMARKS
LINCOLN        SUNNY     64  59  86 CALM      30.05S
6HR MIN TEMP:  60; 6HR MAX TEMP:  71;

MACOMB         CLEAR     60  59  97 CALM      30.07R
MATTOON        SUNNY     66  57  72 N5        30.04R
6HR MIN TEMP:  63; 6HR MAX TEMP:  73;

MT CARMEL AP   SUNNY     68  64  88 CALM      30.03R
OLNEY-NOBLE AP SUNNY     66  63  88 CALM      30.04R
PARIS          SUNNY     61  59  92 NW5       30.04S
6HR MIN TEMP:  57; 6HR MAX TEMP:  67;

PEORIA         SUNNY     65  60  84 SW3       30.05R
6HR MIN TEMP:  64; 6HR MAX TEMP:  72;

PONTIAC        SUNNY     62  61  95 CALM      30.04S
RANTOUL        SUNNY     65  60  82 NW6       30.04R
6HR MIN TEMP:  61; 6HR MAX TEMP:  70;

ROBINSON       SUNNY     66  61  85 N5        30.04R
6HR MIN TEMP:  63; 6HR MAX TEMP:  68;

SPRINGFIELD    MOSUNNY   65  61  87 CALM      30.06R
6HR MIN TEMP:  62; 6HR MAX TEMP:  73;

TAYLORVILLE    MOSUNNY   63  61  94 N5        30.05R
$$

...REGIONAL REPORTS...


CITY           SKY/WX    TMP DP  RH WIND       PRES   REMARKS
CHICAGO O`HARE SUNNY     66  55  67 W7        29.99R
KANKAKEE       SUNNY     62  58  88 W5        30.03R
MOLINE         SUNNY     62  58  86 CALM      30.02S
MOUNT STERLING NOT AVBL
MOUNT VERNON   SUNNY     66  63  88 CALM      30.05R
PITTSFIELD     MOCLDY    70  66  88 CALM      30.07R
QUINCY         MOCLDY    69  66  90 CALM      30.05S
ROCKFORD       SUNNY     59  55  87 CALM      30.02S
$$


CITY           SKY/WX    TMP DP  RH WIND       PRES   REMARKS
BURLINGTON     CLEAR     62  60  93 CALM      30.04R
CEDAR RAPIDS   CLEAR     60  60 100 CALM      30.02R
DES MOINES     PTCLDY    69  65  86 S5        30.03R
KIRKSVILLE     PTCLDY    69  65  86 S5        30.07R
OTTUMWA        CLEAR     65  65 100 S3        30.02S
ST LOUIS       NOT AVBL
$$


CITY           SKY/WX    TMP DP  RH WIND       PRES   REMARKS
TERRE HAUTE    SUNNY     63  59  87 CALM      30.03R
EVANSVILLE     SUNNY     75  65  70 N5        30.03R
INDIANAPOLIS   MOSUNNY   65  58  78 NW8       30.00R
LAFAYETTE      SUNNY     61  60  97 CALM      30.02R
MADISON        MOSUNNY   65  55  70 NW7       29.98R
MILWAUKEE      SUNNY     68  51  54 W8        29.96S
$$





USA.gov is the U.S. government's official web portal to all federal, state and local government web resources and services.